Powrót do katalogu

THORAD DELTA 1 DEB

AktywnySSO
NORAD 8395·DEBRIS·🇺🇸 United States

Wystrzelony Nov 15, 1974 z Vandenberg Space Force Base

Loading…

Następne Przeloty (najbliższe 24 godziny)

TLE

ŚwieżeSource: Space-Track

Epoka: Sep 14, 2026, 03:20 UTC

1 08395U 74089BX  26257.13944664  .00001166  00000-0  56970-2 0  9995
2 08395 100.8340 224.4441 0111966   3.0410  10.8434 12.72990238575163

Śledź THORAD DELTA 1 DEB w czasie rzeczywistym z AllMySat

Download on the App Store